Skip Page Navigation
NASA JPL Caltech
NASA Logo - Jet Propulsion Laboratory + View the NASA Portal
+ Near-Earth Object (NEO) Program
Search JPL
JPL Home Earth Solar System Stars & Galaxies Technology
JPL Solar System Dynamics
BODIES ORBITS EPHEMERIDES TOOLS PHYSICAL DATA DISCOVERY FAQ SITE MAP
JPL Small-Body Database Browser
Search: [ help ]  
37682 (1995 GZ6)
Classification: Main-belt Asteroid          SPK-ID: 2037682
Ephemeris | Orbit Diagram | Orbital Elements | Physical Parameters | Discovery Circumstances ]

[ show orbit diagram ]
Orbital Elements at Epoch 2456800.5 (2014-May-23.0) TDB
Reference: JPL 3 (heliocentric ecliptic J2000)
 Element Value Uncertainty (1-sigma)   Units 
e .1711376083717292 6.74e-08  
a 2.305154201033456 2.0492e-08 AU
q 1.910655624140546 1.5272e-07 AU
i 6.253754577989928 8.1796e-06 deg
node 126.6024629422546 6.1603e-05 deg
peri 147.6063426628944 6.6438e-05 deg
M 90.14529556453888 2.8212e-05 deg
tp 2456480.397573174405
(2013-Jul-06.89757317)
9.9043e-05 JED
period 1278.345951783044
3.50
1.7046e-05
4.667e-08
d
yr
n .2816139085807483 3.7552e-09 deg/d
Q 2.699652777926365 2.3999e-08 AU
  Orbit Determination Parameters
   # obs. used (total)      490  
   data-arc span      6684 days (18.30 yr)  
   first obs. used      1995-03-27  
   last obs. used      2013-07-14  
   planetary ephem.      DE431  
   SB-pert. ephem.      SB431-BIG16  
   condition code      0  
   fit RMS      .49517  
   data source      ORB  
   producer      Otto Matic  
   solution date      2014-Jun-10 04:30:27  

Additional Information
 Earth MOID = .897249 AU 
 T_jup = 3.561 
[ show covariance matrix ]

Ephemeris | Orbit Diagram | Orbital Elements | Physical Parameters | Discovery Circumstances ]

Physical Parameter Table
Parameter Symbol Value Units Sigma Reference Notes
absolute magnitude H 15.0 mag n/a MPO266135  

37682 (1995 GZ6)          Discovered 1995-Apr-04 by BAO Schmidt CCD Asteroid Program at Xinglong (327)
Reference: 20020328/Numbers.arcLast Updated: 2004-04-19

Alternate Designations
 1995 GZ6 = 1999 LW27 = 2000 RF61 
Ephemeris | Orbit Diagram | Orbital Elements | Physical Parameters | Discovery Circumstances ]
ABOUT SSD CREDITS/AWARDS PRIVACY/COPYRIGHT GLOSSARY LINKS
FirstGov 2014-Jul-24 10:42 UT
(server date/time)  
NASA Home Page
Site Manager:   Donald K. Yeomans
Webmaster  Alan B. Chamberlin